Flag for Paraguay Weather past 2 weeks in Ciudad del Este, Paraguay

Now
73 °F

Clear.


Feels Like: 76 °F
Forecast: 63 / 70 °F
Wind: 10 mph from Northeast

Location: Foz Do Iguacu Aeroporto

Current Time: Jul 22, 2014 at 8:45:24 PM

Latest Report: Jul 22, 2014 at 8:00 PM


Visibility: 10 mi

Pressure: 29.86 "Hg

Humidity: 61%

Dew point: 59 °F

Location of Ciudad del EsteLocation

Historic Weather in Ciudad del Este — Graph

°F

Ciudad del Este temperature yesterday

Maximum temperature yesterday: 77 °F (at 1:00 PM)
Minimum temperature yesterday: 52 °F (at 1:00 AM)
Average temperature yesterday: 63 °F

Past Weeks' High & Low Weather Summary

 TemperatureHumidityPressure
High82 °F (Jul 15, 2:00 PM)100% (Jul 8, 3:00 AM)30.33 "Hg (Jul 8, 3:00 AM)
Low41 °F (Jul 19, 7:00 AM)36% (Jul 21, 2:00 PM)29.89 "Hg (Jul 22, 1:00 PM)
Average63 °F82%30.13 "Hg
* Reported Jul 7 1:00 PM — Jul 22 1:00 PM, Ciudad del Este, Weather by CustomWeather, © 2014

Note: Actual official high and low records may vary slightly from our data, if they occured in-between our weather recording intervals... More about our weather records

Advertising

Ciudad del Este weather history for previous 24 hours

 ConditionsComfort  
Time TempWeatherWind HumidityBarometerVisibility
1:00 PM
Jul 22
82 °FScattered clouds.12 mph42%29.89 "HgN/A
12:00 PM81 °FSunny.8 mph42%29.92 "Hg10 mi
11:00 AM73 °FSunny.8 mph57%29.98 "Hg10 mi
10:00 AM68 °FSunny.9 mph64%30.01 "Hg10 mi
9:00 AM64 °FSunny.10 mph68%30.01 "Hg10 mi
8:00 AM61 °FSunny.13 mph72%30.01 "Hg10 mi
7:00 AM57 °FSunny.10 mph77%30.01 "Hg10 mi
6:00 AM55 °FSunny.12 mph82%29.98 "Hg10 mi
5:00 AM55 °FClear.13 mph82%29.98 "Hg10 mi
4:00 AM57 °FClear.10 mph82%29.98 "Hg10 mi
3:00 AM55 °FClear.9 mph88%29.98 "Hg10 mi
2:00 AM57 °FClear.10 mph82%30.01 "Hg10 mi
1:00 AM57 °FClear.9 mph82%30.01 "Hg10 mi
12:00 AM57 °FClear.7 mph82%30.01 "Hg10 mi
11:00 PM
Jul 21
59 °FClear.7 mph77%30.01 "Hg10 mi
10:00 PM63 °FClear.9 mph64%30.01 "Hg10 mi
9:00 PM64 °FClear.9 mph60%30.01 "Hg10 mi
8:00 PM66 °FClear.8 mph56%30.01 "Hg10 mi
Weather by CustomWeather, © 2014

See weather overviewHow to use our weather pages